Time,TemperatureF,DewpointF,PressureIn,WindDirection,WindDirectionDegrees,WindSpeedMPH,WindSpeedGustMPH,Humidity,HourlyPrecipIn,Conditions,Clouds,dailyrainin,SoftwareType,DateUTC
2013-08-30 00:01:00,62.2,58.0,30.00,ESE,105,0.0,4.0,86,0.00,,OVC019,0.01,VWS V14.01,2013-08-30 04:01:00,
2013-08-30 00:02:00,62.2,58.0,30.00,ESE,105,0.0,0.0,86,0.00,,OVC019,0.00,VWS V14.01,2013-08-30 04:02:00,
2013-08-30 00:07:00,62.2,58.0,30.00,ESE,105,0.0,0.0,86,0.00,,OVC019,0.00,VWS V14.01,2013-08-30 04:07:00,
2013-08-30 00:12:00,62.2,58.3,30.00,ESE,105,1.0,4.0,87,0.00,,OVC019,0.00,VWS V14.01,2013-08-30 04:12:00,
2013-08-30 00:17:00,62.3,58.4,30.00,ESE,105,0.0,4.0,87,0.00,,OVC019,0.00,VWS V14.01,2013-08-30 04:17:00,
2013-08-30 00:22:00,62.2,58.3,30.00,ESE,105,0.0,5.0,87,0.00,,OVC019,0.00,VWS V14.01,2013-08-30 04:22:00,
2013-08-30 00:27:00,62.3,58.4,30.00,ESE,105,2.0,5.0,87,0.00,,OVC019,0.00,VWS V14.01,2013-08-30 04:27:00,
2013-08-30 00:32:00,62.3,58.4,30.01,ESE,105,0.0,0.0,87,0.00,,OVC019,0.00,VWS V14.01,2013-08-30 04:32:00,
2013-08-30 00:37:00,62.2,58.3,30.00,SW,217,0.0,6.0,87,0.00,,OVC019,0.00,VWS V14.01,2013-08-30 04:37:00,
2013-08-30 00:42:00,62.3,58.4,30.00,SW,217,0.0,6.0,87,0.00,,OVC019,0.00,VWS V14.01,2013-08-30 04:42:00,
2013-08-30 00:47:00,62.2,58.3,29.99,SW,217,0.0,6.0,87,0.00,,OVC019,0.00,VWS V14.01,2013-08-30 04:47:00,
2013-08-30 00:52:00,62.2,58.3,29.99,SW,217,0.0,6.0,87,0.00,,OVC019,0.00,VWS V14.01,2013-08-30 04:52:00,
2013-08-30 00:57:00,62.2,58.3,29.99,SW,217,0.0,6.0,87,0.00,,OVC019,0.00,VWS V14.01,2013-08-30 04:57:00,
2013-08-30 01:02:00,62.2,58.3,30.00,SW,217,0.0,0.0,87,0.00,,OVC019,0.00,VWS V14.01,2013-08-30 05:02:00,
2013-08-30 01:07:00,62.2,58.3,29.99,SW,217,0.0,2.0,87,0.00,,OVC019,0.00,VWS V14.01,2013-08-30 05:07:00,
2013-08-30 01:12:00,62.2,58.3,30.00,SW,217,1.0,2.0,87,0.00,,OVC019,0.00,VWS V14.01,2013-08-30 05:12:00,
2013-08-30 01:17:00,62.3,58.4,30.00,SW,217,0.0,2.0,87,0.00,,OVC019,0.00,VWS V14.01,2013-08-30 05:17:00,
2013-08-30 01:22:00,62.3,58.4,30.00,SW,217,0.0,2.0,87,0.00,,OVC019,0.00,VWS V14.01,2013-08-30 05:22:00,
2013-08-30 01:27:00,62.3,58.4,29.99,SW,217,0.0,2.0,87,0.00,,OVC019,0.00,VWS V14.01,2013-08-30 05:27:00,
2013-08-30 01:32:00,62.3,58.4,29.99,SW,217,0.0,0.0,87,0.00,,OVC019,0.00,VWS V14.01,2013-08-30 05:32:00,
2013-08-30 01:37:00,62.2,58.3,29.99,SW,217,0.0,2.0,87,0.00,,OVC019,0.00,VWS V14.01,2013-08-30 05:37:00,
2013-08-30 01:42:00,62.3,58.4,29.99,SW,217,0.0,2.0,87,0.00,,OVC019,0.00,VWS V14.01,2013-08-30 05:42:00,
2013-08-30 01:47:00,62.2,58.3,29.99,SW,217,0.0,2.0,87,0.00,,OVC019,0.00,VWS V14.01,2013-08-30 05:47:00,
2013-08-30 01:52:00,62.2,58.3,29.99,SW,217,0.0,2.0,87,0.00,,OVC019,0.00,VWS V14.01,2013-08-30 05:52:00,
2013-08-30 01:57:00,62.2,58.3,29.99,SW,217,0.0,2.0,87,0.00,,OVC019,0.00,VWS V14.01,2013-08-30 05:57:00,
2013-08-30 02:02:00,62.2,58.3,29.99,SW,217,0.0,0.0,87,0.00,,OVC019,0.00,VWS V14.01,2013-08-30 06:02:00,
2013-08-30 02:07:00,62.2,58.3,29.98,SW,217,0.0,2.0,87,0.00,,OVC019,0.00,VWS V14.01,2013-08-30 06:07:00,
2013-08-30 02:12:00,62.2,58.3,29.99,SW,217,0.0,2.0,87,0.00,,OVC019,0.00,VWS V14.01,2013-08-30 06:12:00,
2013-08-30 02:17:00,62.2,58.6,29.98,SW,217,0.0,2.0,88,0.00,,OVC019,0.00,VWS V14.01,2013-08-30 06:17:00,
2013-08-30 02:22:00,62.2,58.3,29.98,SW,217,0.0,2.0,87,0.00,,OVC019,0.00,VWS V14.01,2013-08-30 06:22:00,
2013-08-30 02:27:00,62.2,58.6,29.98,SW,217,0.0,2.0,88,0.00,,OVC019,0.00,VWS V14.01,2013-08-30 06:27:00,
2013-08-30 02:32:00,62.2,58.6,29.98,SW,217,3.0,3.0,88,0.00,,OVC019,0.00,VWS V14.01,2013-08-30 06:32:00,
2013-08-30 02:37:00,62.2,58.3,29.98,SW,217,1.0,3.0,87,0.00,,OVC019,0.00,VWS V14.01,2013-08-30 06:37:00,
2013-08-30 02:41:00,62.2,58.3,29.98,SW,217,0.0,3.0,87,0.00,,OVC019,0.00,VWS V14.01,2013-08-30 06:41:00,
2013-08-30 02:46:00,62.3,58.4,29.97,SW,234,0.0,4.0,87,0.00,,OVC019,0.00,VWS V14.01,2013-08-30 06:46:00,
2013-08-30 02:51:00,62.3,58.4,29.97,SW,234,0.0,4.0,87,0.00,,OVC019,0.00,VWS V14.01,2013-08-30 06:51:00,
2013-08-30 02:56:00,62.3,58.4,29.97,SW,234,0.0,4.0,87,0.00,,OVC019,0.00,VWS V14.01,2013-08-30 06:56:00,
2013-08-30 03:01:00,62.3,58.4,29.97,SW,234,0.0,0.0,87,0.00,,OVC017,0.00,VWS V14.01,2013-08-30 07:01:00,
2013-08-30 03:06:00,62.3,58.4,29.97,SW,234,0.0,1.0,87,0.00,,OVC017,0.00,VWS V14.01,2013-08-30 07:06:00,
2013-08-30 03:11:00,62.3,58.4,29.97,SW,234,0.0,1.0,87,0.00,,OVC017,0.00,VWS V14.01,2013-08-30 07:11:00,
2013-08-30 03:16:00,62.3,58.4,29.97,SW,234,0.0,3.0,87,0.00,,OVC017,0.00,VWS V14.01,2013-08-30 07:16:00,
2013-08-30 03:21:00,62.4,58.5,29.97,SW,234,0.0,3.0,87,0.00,,OVC017,0.00,VWS V14.01,2013-08-30 07:21:00,
2013-08-30 03:26:00,62.3,58.4,29.96,SW,234,1.0,3.0,87,0.00,,OVC017,0.00,VWS V14.01,2013-08-30 07:26:00,
2013-08-30 03:31:00,62.3,58.4,29.96,WSW,244,2.0,2.0,87,0.00,,OVC017,0.00,VWS V14.01,2013-08-30 07:31:00,
2013-08-30 03:36:00,62.3,58.4,29.96,WSW,244,0.0,4.0,87,0.00,,OVC017,0.00,VWS V14.01,2013-08-30 07:36:00,
2013-08-30 03:41:00,62.3,58.4,29.96,WSW,255,0.0,7.0,87,0.00,,OVC017,0.00,VWS V14.01,2013-08-30 07:41:00,
2013-08-30 03:46:00,62.3,58.4,29.96,WSW,256,1.0,7.0,87,0.00,,OVC017,0.00,VWS V14.01,2013-08-30 07:46:00,
2013-08-30 03:51:00,62.2,58.3,29.95,WSW,256,1.0,7.0,87,0.00,,OVC017,0.00,VWS V14.01,2013-08-30 07:51:00,
2013-08-30 03:56:00,62.2,58.3,29.95,WSW,256,2.0,7.0,87,0.00,,OVC017,0.00,VWS V14.01,2013-08-30 07:56:00,
2013-08-30 04:01:00,62.2,58.3,29.95,WSW,256,1.0,2.0,87,0.00,,OVC017,0.00,VWS V14.01,2013-08-30 08:01:00,
2013-08-30 04:06:00,62.2,58.3,29.95,WSW,256,0.0,3.0,87,0.00,,OVC017,0.00,VWS V14.01,2013-08-30 08:06:00,
2013-08-30 04:11:00,62.2,58.3,29.95,WSW,256,3.0,3.0,87,0.00,,OVC017,0.00,VWS V14.01,2013-08-30 08:11:00,
2013-08-30 04:16:00,62.2,58.3,29.95,WSW,256,0.0,4.0,87,0.00,,OVC017,0.00,VWS V14.01,2013-08-30 08:16:00,
2013-08-30 04:21:00,62.2,58.3,29.95,WSW,256,2.0,4.0,87,0.00,,OVC017,0.00,VWS V14.01,2013-08-30 08:21:00,
2013-08-30 04:26:00,62.3,58.4,29.95,WSW,256,1.0,4.0,87,0.00,,OVC017,0.00,VWS V14.01,2013-08-30 08:26:00,
2013-08-30 04:31:00,62.3,58.4,29.95,WSW,256,3.0,4.0,87,0.00,,OVC017,0.00,VWS V14.01,2013-08-30 08:31:00,
2013-08-30 04:36:00,62.3,58.4,29.95,WSW,256,1.0,5.0,87,0.00,,OVC017,0.00,VWS V14.01,2013-08-30 08:36:00,
2013-08-30 04:41:00,62.3,58.4,29.95,West,263,5.0,6.0,87,0.00,,OVC017,0.00,VWS V14.01,2013-08-30 08:41:00,
2013-08-30 04:46:00,62.3,58.4,29.95,West,264,2.0,6.0,87,0.00,,OVC017,0.00,VWS V14.01,2013-08-30 08:46:00,
2013-08-30 04:51:00,62.3,58.4,29.95,West,264,0.0,6.0,87,0.00,,OVC017,0.00,VWS V14.01,2013-08-30 08:51:00,
2013-08-30 04:56:00,62.3,58.4,29.95,West,264,0.0,6.0,87,0.00,,OVC017,0.00,VWS V14.01,2013-08-30 08:56:00,
2013-08-30 05:01:00,62.3,58.4,29.95,West,264,4.0,4.0,87,0.00,,OVC017,0.00,VWS V14.01,2013-08-30 09:01:00,
2013-08-30 05:06:00,62.3,58.4,29.95,West,264,3.0,5.0,87,0.00,,OVC017,0.00,VWS V14.01,2013-08-30 09:06:00,
2013-08-30 05:11:00,62.3,58.4,29.95,West,264,1.0,5.0,87,0.00,,OVC017,0.00,VWS V14.01,2013-08-30 09:11:00,
2013-08-30 05:16:00,62.3,58.4,29.95,West,265,2.0,5.0,87,0.00,,OVC017,0.00,VWS V14.01,2013-08-30 09:16:00,
2013-08-30 05:21:00,62.3,58.7,29.95,West,265,1.0,5.0,88,0.00,,OVC017,0.00,VWS V14.01,2013-08-30 09:21:00,
2013-08-30 05:26:00,62.3,58.4,29.95,West,265,0.0,5.0,87,0.00,,OVC017,0.00,VWS V14.01,2013-08-30 09:26:00,
2013-08-30 05:31:00,62.3,58.7,29.95,West,270,0.0,2.0,88,0.00,,OVC017,0.00,VWS V14.01,2013-08-30 09:31:00,
2013-08-30 05:36:00,62.3,58.7,29.95,West,270,0.0,4.0,88,0.00,,OVC017,0.00,VWS V14.01,2013-08-30 09:36:00,
2013-08-30 05:41:00,62.3,58.7,29.95,West,270,0.0,4.0,88,0.00,,OVC017,0.00,VWS V14.01,2013-08-30 09:41:00,
2013-08-30 05:46:00,62.3,58.7,29.95,West,270,0.0,4.0,88,0.00,,OVC017,0.00,VWS V14.01,2013-08-30 09:46:00,
2013-08-30 05:51:00,62.3,58.7,29.96,West,270,0.0,4.0,88,0.00,,OVC017,0.00,VWS V14.01,2013-08-30 09:51:00,
2013-08-30 05:56:00,62.3,58.7,29.96,West,272,0.0,7.0,88,0.00,,OVC017,0.00,VWS V14.01,2013-08-30 09:56:00,
2013-08-30 06:01:00,62.3,58.7,29.96,West,273,5.0,5.0,88,0.00,,OVC017,0.00,VWS V14.01,2013-08-30 10:01:00,
2013-08-30 06:06:00,62.3,58.7,29.96,West,273,0.0,5.0,88,0.00,,OVC017,0.00,VWS V14.01,2013-08-30 10:06:00,
2013-08-30 06:11:00,62.3,58.7,29.96,West,273,1.0,5.0,88,0.00,,OVC017,0.00,VWS V14.01,2013-08-30 10:11:00,
2013-08-30 06:16:00,62.3,58.7,29.96,West,273,0.0,5.0,88,0.00,,OVC017,0.00,VWS V14.01,2013-08-30 10:16:00,
2013-08-30 06:21:00,62.3,58.7,29.96,West,273,0.0,5.0,88,0.00,,OVC017,0.00,VWS V14.01,2013-08-30 10:21:00,
2013-08-30 06:26:00,62.3,58.7,29.96,West,273,0.0,5.0,88,0.00,,OVC017,0.00,VWS V14.01,2013-08-30 10:26:00,
2013-08-30 06:31:00,62.2,58.6,29.96,West,273,0.0,0.0,88,0.00,,OVC017,0.00,VWS V14.01,2013-08-30 10:31:00,
2013-08-30 06:36:00,62.2,58.9,29.96,West,273,0.0,1.0,89,0.00,,OVC017,0.00,VWS V14.01,2013-08-30 10:36:00,
2013-08-30 06:41:00,62.3,58.7,29.96,West,273,0.0,1.0,88,0.00,,OVC017,0.00,VWS V14.01,2013-08-30 10:41:00,
2013-08-30 06:46:00,62.3,58.7,29.96,West,273,0.0,1.0,88,0.00,,OVC017,0.00,VWS V14.01,2013-08-30 10:46:00,
2013-08-30 06:51:00,62.3,58.7,29.96,West,273,0.0,1.0,88,0.00,,OVC017,0.00,VWS V14.01,2013-08-30 10:51:00,
2013-08-30 06:56:00,62.3,59.0,29.95,West,273,0.0,1.0,89,0.00,,OVC017,0.00,VWS V14.01,2013-08-30 10:56:00,
2013-08-30 07:01:00,62.4,59.1,29.95,West,273,0.0,0.0,89,0.00,,OVC015,0.00,VWS V14.01,2013-08-30 11:01:00,
2013-08-30 07:06:00,62.4,58.8,29.95,West,273,0.0,0.0,88,0.00,,OVC015,0.00,VWS V14.01,2013-08-30 11:06:00,
2013-08-30 07:11:00,62.5,58.9,29.95,West,273,1.0,2.0,88,0.00,,OVC015,0.00,VWS V14.01,2013-08-30 11:11:00,
2013-08-30 07:16:00,62.5,58.9,29.95,West,267,1.0,4.0,88,0.00,,OVC015,0.00,VWS V14.01,2013-08-30 11:16:00,
2013-08-30 07:21:00,62.6,58.7,29.95,West,259,1.0,4.0,87,0.00,,OVC015,0.00,VWS V14.01,2013-08-30 11:21:00,
2013-08-30 07:26:00,62.6,58.7,29.95,West,259,0.0,4.0,87,0.00,,OVC015,0.00,VWS V14.01,2013-08-30 11:26:00,
2013-08-30 07:31:00,62.7,59.1,29.95,West,259,2.0,2.0,88,0.00,,OVC035,0.00,VWS V14.01,2013-08-30 11:31:00,
2013-08-30 07:36:00,62.7,58.8,29.95,West,259,0.0,2.0,87,0.00,,OVC035,0.00,VWS V14.01,2013-08-30 11:36:00,
2013-08-30 07:41:00,62.8,58.9,29.95,WSW,254,2.0,4.0,87,0.00,,OVC035,0.00,VWS V14.01,2013-08-30 11:41:00,
2013-08-30 07:46:00,62.8,58.9,29.95,West,275,0.0,7.0,87,0.00,,OVC035,0.00,VWS V14.01,2013-08-30 11:46:00,
2013-08-30 07:51:00,62.9,59.0,29.95,West,275,0.0,7.0,87,0.00,,OVC035,0.00,VWS V14.01,2013-08-30 11:51:00,
2013-08-30 07:56:00,63.1,58.8,29.95,West,275,0.0,7.0,86,0.00,,OVC035,0.00,VWS V14.01,2013-08-30 11:56:00,
2013-08-30 08:01:00,63.3,59.4,29.95,West,275,0.0,2.0,87,0.00,,OVC044,0.00,VWS V14.01,2013-08-30 12:01:00,
2013-08-30 08:06:00,63.4,59.2,29.95,West,275,0.0,2.0,86,0.00,,OVC044,0.00,VWS V14.01,2013-08-30 12:06:00,
2013-08-30 08:11:00,63.5,59.2,29.95,West,278,0.0,8.0,86,0.00,,OVC043,0.00,VWS V14.01,2013-08-30 12:11:00,
2013-08-30 08:16:00,63.6,59.3,29.95,West,279,0.0,8.0,86,0.00,,OVC043,0.00,VWS V14.01,2013-08-30 12:16:00,
2013-08-30 08:21:00,63.7,59.4,29.95,West,280,0.0,8.0,86,0.00,,OVC043,0.00,VWS V14.01,2013-08-30 12:21:00,
2013-08-30 08:26:00,63.8,59.2,29.95,West,279,0.0,8.0,85,0.00,,OVC043,0.00,VWS V14.01,2013-08-30 12:26:00,
2013-08-30 08:31:00,63.8,59.2,29.95,West,280,0.0,0.0,85,0.00,,OVC043,0.00,VWS V14.01,2013-08-30 12:31:00,
2013-08-30 08:36:00,63.8,59.2,29.94,West,280,0.0,1.0,85,0.00,,OVC043,0.00,VWS V14.01,2013-08-30 12:36:00,
2013-08-30 08:41:00,63.9,59.3,29.95,West,280,0.0,5.0,85,0.00,,OVC043,0.00,VWS V14.01,2013-08-30 12:41:00,
2013-08-30 08:46:00,64.0,59.4,29.94,West,280,0.0,5.0,85,0.00,,OVC043,0.00,VWS V14.01,2013-08-30 12:46:00,
2013-08-30 08:51:00,64.1,59.5,29.94,West,280,0.0,5.0,85,0.00,,BKN034,0.00,VWS V14.01,2013-08-30 12:51:00,
2013-08-30 08:56:00,64.3,59.7,29.94,West,280,5.0,5.0,85,0.00,,BKN034,0.00,VWS V14.01,2013-08-30 12:56:00,
2013-08-30 09:01:00,64.5,59.9,29.94,West,280,0.0,1.0,85,0.00,,BKN048,0.00,VWS V14.01,2013-08-30 13:01:00,
2013-08-30 09:06:00,65.0,60.4,29.94,West,279,0.0,6.0,85,0.00,,BKN048,0.00,VWS V14.01,2013-08-30 13:06:00,
2013-08-30 09:11:00,65.4,60.5,29.94,West,279,4.0,6.0,84,0.00,,OVC047,0.00,VWS V14.01,2013-08-30 13:11:00,
2013-08-30 09:16:00,65.7,60.4,29.94,West,279,0.0,6.0,83,0.00,,OVC047,0.00,VWS V14.01,2013-08-30 13:16:00,
2013-08-30 09:21:00,66.0,60.7,29.94,WNW,289,0.0,8.0,83,0.00,,OVC047,0.00,VWS V14.01,2013-08-30 13:21:00,
2013-08-30 09:26:00,66.2,60.5,29.94,WNW,288,1.0,8.0,82,0.00,,OVC047,0.00,VWS V14.01,2013-08-30 13:26:00,
2013-08-30 09:31:00,66.4,60.7,29.94,WNW,288,0.0,4.0,82,0.00,,OVC047,0.00,VWS V14.01,2013-08-30 13:31:00,
2013-08-30 09:36:00,66.7,61.0,29.94,WNW,288,0.0,5.0,82,0.00,,OVC047,0.00,VWS V14.01,2013-08-30 13:36:00,
2013-08-30 09:41:00,66.9,61.2,29.94,WNW,288,1.0,5.0,82,0.00,,OVC016,0.00,VWS V14.01,2013-08-30 13:41:00,
2013-08-30 09:46:00,67.0,61.0,29.94,WNW,282,0.0,7.0,81,0.00,,OVC016,0.00,VWS V14.01,2013-08-30 13:46:00,
2013-08-30 09:51:00,67.0,61.0,29.94,West,280,2.0,8.0,81,0.00,,OVC016,0.00,VWS V14.01,2013-08-30 13:51:00,
2013-08-30 09:56:00,67.4,61.4,29.94,West,281,4.0,8.0,81,0.00,,OVC016,0.00,VWS V14.01,2013-08-30 13:56:00,
2013-08-30 10:01:00,67.7,61.3,29.93,West,281,4.0,5.0,80,0.00,,OVC016,0.00,VWS V14.01,2013-08-30 14:01:00,
2013-08-30 10:06:00,68.0,61.6,29.93,West,281,2.0,7.0,80,0.00,,OVC016,0.00,VWS V14.01,2013-08-30 14:06:00,
2013-08-30 10:11:00,68.5,61.7,29.93,West,281,1.0,7.0,79,0.00,,OVC014,0.00,VWS V14.01,2013-08-30 14:11:00,
2013-08-30 10:16:00,69.0,62.2,29.93,West,281,1.0,7.0,79,0.00,,OVC014,0.00,VWS V14.01,2013-08-30 14:16:00,
2013-08-30 10:21:00,69.4,62.2,29.92,West,281,0.0,7.0,78,0.00,,OVC014,0.00,VWS V14.01,2013-08-30 14:21:00,
2013-08-30 10:26:00,69.8,62.3,29.92,West,281,4.0,7.0,77,0.00,,OVC014,0.00,VWS V14.01,2013-08-30 14:26:00,
2013-08-30 10:31:00,70.1,62.6,29.92,West,281,1.0,2.0,77,0.00,,OVC014,0.00,VWS V14.01,2013-08-30 14:31:00,
2013-08-30 10:36:00,70.6,63.0,29.92,West,281,4.0,7.0,77,0.00,,OVC014,0.00,VWS V14.01,2013-08-30 14:36:00,
2013-08-30 10:41:00,71.0,62.7,29.92,West,281,1.0,7.0,75,0.00,,OVC014,0.00,VWS V14.01,2013-08-30 14:41:00,
2013-08-30 10:46:00,71.1,62.8,29.92,West,281,2.0,7.0,75,0.00,,OVC014,0.00,VWS V14.01,2013-08-30 14:46:00,
2013-08-30 10:51:00,71.6,63.3,29.92,WNW,290,2.0,7.0,75,0.00,,OVC014,0.00,VWS V14.01,2013-08-30 14:51:00,
2013-08-30 10:56:00,72.0,62.9,29.92,West,277,2.0,9.0,73,0.00,,OVC014,0.00,VWS V14.01,2013-08-30 14:56:00,
2013-08-30 11:01:00,71.7,63.4,29.91,West,277,4.0,4.0,75,0.00,,BKN018,0.00,VWS V14.01,2013-08-30 15:01:00,
2013-08-30 11:06:00,72.0,64.0,29.91,West,281,5.0,7.0,76,0.00,,BKN018,0.00,VWS V14.01,2013-08-30 15:06:00,
2013-08-30 11:11:00,72.3,63.2,29.91,West,267,3.0,13.0,73,0.00,,BKN018,0.00,VWS V14.01,2013-08-30 15:11:00,
2013-08-30 11:16:00,72.5,63.8,29.90,WNW,290,5.0,13.0,74,0.00,,BKN018,0.00,VWS V14.01,2013-08-30 15:16:00,
2013-08-30 11:21:00,73.5,64.3,29.90,NNE,12,5.0,13.0,73,0.00,,BKN018,0.00,VWS V14.01,2013-08-30 15:21:00,
2013-08-30 11:26:00,74.0,64.4,29.90,North,350,4.0,13.0,72,0.00,,BKN018,0.00,VWS V14.01,2013-08-30 15:26:00,
2013-08-30 11:31:00,74.4,64.8,29.90,WNW,299,0.0,0.0,72,0.00,,BKN018,0.00,VWS V14.01,2013-08-30 15:31:00,
2013-08-30 11:36:00,75.0,65.0,29.90,SSW,204,1.0,5.0,71,0.00,,BKN018,0.00,VWS V14.01,2013-08-30 15:36:00,
2013-08-30 11:41:00,75.3,64.4,29.90,WSW,245,2.0,7.0,69,0.00,,BKN018,0.00,VWS V14.01,2013-08-30 15:41:00,
2013-08-30 11:46:00,75.3,64.8,29.90,WNW,284,1.0,7.0,70,0.00,,BKN018,0.00,VWS V14.01,2013-08-30 15:46:00,
2013-08-30 11:51:00,75.6,64.7,29.90,West,267,1.0,7.0,69,0.00,,BKN018,0.00,VWS V14.01,2013-08-30 15:51:00,
2013-08-30 11:56:00,75.9,65.0,29.90,WSW,251,0.0,7.0,69,0.00,,BKN018,0.00,VWS V14.01,2013-08-30 15:56:00,
2013-08-30 12:01:00,76.3,65.0,29.90,West,259,2.0,2.0,68,0.00,,BKN022,0.00,VWS V14.01,2013-08-30 16:01:00,
2013-08-30 12:06:00,76.8,65.0,29.89,West,260,3.0,3.0,67,0.00,,BKN022,0.00,VWS V14.01,2013-08-30 16:06:00,
2013-08-30 12:11:00,76.9,64.7,29.89,West,279,4.0,12.0,66,0.00,,BKN022,0.00,VWS V14.01,2013-08-30 16:11:00,
2013-08-30 12:16:00,76.4,64.6,29.89,West,277,7.0,12.0,67,0.00,,BKN022,0.00,VWS V14.01,2013-08-30 16:16:00,
2013-08-30 12:21:00,75.8,64.9,29.89,West,280,0.0,13.0,69,0.00,,BKN022,0.00,VWS V14.01,2013-08-30 16:21:00,
2013-08-30 12:26:00,75.9,64.6,29.88,West,267,4.0,13.0,68,0.00,,BKN022,0.00,VWS V14.01,2013-08-30 16:26:00,
2013-08-30 12:31:00,76.5,65.2,29.88,West,275,2.0,13.0,68,0.00,,BKN022,0.00,VWS V14.01,2013-08-30 16:31:00,
2013-08-30 12:36:00,77.3,65.5,29.88,SW,220,2.0,4.0,67,0.00,,BKN022,0.00,VWS V14.01,2013-08-30 16:36:00,
2013-08-30 12:41:00,77.9,65.6,29.88,SW,229,1.0,4.0,66,0.00,,BKN250,0.00,VWS V14.01,2013-08-30 16:41:00,
2013-08-30 12:46:00,78.2,65.0,29.87,West,274,0.0,11.0,64,0.00,,BKN250,0.00,VWS V14.01,2013-08-30 16:46:00,
2013-08-30 12:51:00,78.2,65.5,29.87,West,279,2.0,11.0,65,0.00,,BKN250,0.00,VWS V14.01,2013-08-30 16:51:00,
2013-08-30 12:56:00,78.8,65.6,29.87,WSW,256,4.0,11.0,64,0.00,,BKN250,0.00,VWS V14.01,2013-08-30 16:56:00,
2013-08-30 13:01:00,79.0,65.3,29.87,West,274,2.0,11.0,63,0.00,,BKN250,0.00,VWS V14.01,2013-08-30 17:01:00,
2013-08-30 13:06:00,79.1,65.4,29.86,SW,216,4.0,7.0,63,0.00,,BKN250,0.00,VWS V14.01,2013-08-30 17:06:00,
2013-08-30 13:11:00,79.1,65.4,29.86,West,262,1.0,11.0,63,0.00,,BKN250,0.00,VWS V14.01,2013-08-30 17:11:00,
2013-08-30 13:16:00,79.4,65.7,29.86,WSW,258,4.0,11.0,63,0.00,,BKN250,0.00,VWS V14.01,2013-08-30 17:16:00,
2013-08-30 13:21:00,79.5,65.3,29.86,SSW,202,4.0,11.0,62,0.00,,BKN250,0.00,VWS V14.01,2013-08-30 17:21:00,
2013-08-30 13:26:00,79.6,65.4,29.85,West,260,1.0,11.0,62,0.00,,BKN250,0.00,VWS V14.01,2013-08-30 17:26:00,
2013-08-30 13:31:00,80.3,65.6,29.85,WNW,292,4.0,11.0,61,0.00,,BKN250,0.00,VWS V14.01,2013-08-30 17:31:00,
2013-08-30 13:36:00,80.8,65.2,29.85,West,273,4.0,6.0,59,0.00,,BKN250,0.00,VWS V14.01,2013-08-30 17:36:00,
2013-08-30 13:41:00,80.8,65.6,29.85,West,277,2.0,6.0,60,0.00,,BKN250,0.00,VWS V14.01,2013-08-30 17:41:00,
2013-08-30 13:46:00,81.0,65.3,29.85,West,278,1.0,7.0,59,0.00,,BKN250,0.00,VWS V14.01,2013-08-30 17:46:00,
2013-08-30 13:51:00,81.2,65.5,29.85,SW,224,4.0,7.0,59,0.00,,BKN250,0.00,VWS V14.01,2013-08-30 17:51:00,
2013-08-30 13:56:00,81.3,65.6,29.84,West,259,1.0,7.0,59,0.00,,BKN250,0.00,VWS V14.01,2013-08-30 17:56:00,
2013-08-30 14:01:00,81.9,65.7,29.84,WSW,248,0.0,7.0,58,0.00,,BKN250,0.00,VWS V14.01,2013-08-30 18:01:00,
2013-08-30 14:06:00,82.5,65.2,29.84,South,186,6.0,9.0,56,0.00,,BKN250,0.00,VWS V14.01,2013-08-30 18:06:00,
2013-08-30 14:11:00,82.5,65.8,29.84,SSW,195,5.0,9.0,57,0.00,,BKN250,0.00,VWS V14.01,2013-08-30 18:11:00,
2013-08-30 14:16:00,82.8,65.5,29.83,West,280,2.0,9.0,56,0.00,,BKN250,0.00,VWS V14.01,2013-08-30 18:16:00,
2013-08-30 14:21:00,83.1,65.3,29.83,West,271,2.0,9.0,55,0.00,,BKN250,0.00,VWS V14.01,2013-08-30 18:21:00,
2013-08-30 14:26:00,83.4,65.6,29.83,West,277,1.0,9.0,55,0.00,,BKN250,0.00,VWS V14.01,2013-08-30 18:26:00,
2013-08-30 14:31:00,83.4,65.6,29.83,NW,316,4.0,9.0,55,0.00,,BKN250,0.00,VWS V14.01,2013-08-30 18:31:00,
2013-08-30 14:36:00,83.4,65.0,29.83,WNW,282,0.0,6.0,54,0.00,,BKN250,0.00,VWS V14.01,2013-08-30 18:36:00,
2013-08-30 14:41:00,83.7,64.8,29.83,SSW,196,3.0,9.0,53,0.00,,BKN250,0.00,VWS V14.01,2013-08-30 18:41:00,
2013-08-30 14:46:00,83.6,64.1,29.83,West,276,1.0,12.0,52,0.00,,BKN250,0.00,VWS V14.01,2013-08-30 18:46:00,
2013-08-30 14:51:00,83.4,65.0,29.83,West,273,5.0,12.0,54,0.00,,BKN250,0.00,VWS V14.01,2013-08-30 18:51:00,
2013-08-30 14:56:00,83.9,65.5,29.82,SSW,197,2.0,12.0,54,0.00,,BKN250,0.00,VWS V14.01,2013-08-30 18:56:00,
2013-08-30 15:01:00,84.0,65.1,29.82,WNW,284,2.0,12.0,53,0.00,,SCT300,0.00,VWS V14.01,2013-08-30 19:01:00,
2013-08-30 15:06:00,84.5,65.5,29.82,NW,309,2.0,8.0,53,0.00,,SCT300,0.00,VWS V14.01,2013-08-30 19:06:00,
2013-08-30 15:11:00,85.1,65.0,29.82,West,268,0.0,8.0,51,0.00,,SCT300,0.00,VWS V14.01,2013-08-30 19:11:00,
2013-08-30 15:16:00,85.1,65.5,29.82,WNW,300,4.0,8.0,52,0.00,,SCT300,0.00,VWS V14.01,2013-08-30 19:16:00,
2013-08-30 15:21:00,85.1,65.5,29.82,WNW,302,2.0,8.0,52,0.00,,SCT300,0.00,VWS V14.01,2013-08-30 19:21:00,
2013-08-30 15:26:00,85.1,65.0,29.82,WSW,247,2.0,8.0,51,0.00,,SCT300,0.00,VWS V14.01,2013-08-30 19:26:00,
2013-08-30 15:31:00,85.1,65.0,29.82,West,266,4.0,11.0,51,0.00,,SCT300,0.00,VWS V14.01,2013-08-30 19:31:00,
2013-08-30 15:36:00,84.7,64.6,29.82,West,280,5.0,11.0,51,0.00,,SCT300,0.00,VWS V14.01,2013-08-30 19:36:00,
2013-08-30 15:40:00,84.6,65.1,29.82,WNW,283,5.0,11.0,52,0.00,,SCT300,0.00,VWS V14.01,2013-08-30 19:40:00,
2013-08-30 15:45:00,84.6,65.6,29.81,NW,317,0.0,11.0,53,0.00,,SCT300,0.00,VWS V14.01,2013-08-30 19:45:00,
2013-08-30 15:50:00,84.6,65.1,29.81,NW,310,0.0,11.0,52,0.00,,SCT300,0.00,VWS V14.01,2013-08-30 19:50:00,
2013-08-30 15:55:00,84.8,64.7,29.81,WNW,302,0.0,11.0,51,0.00,,SCT300,0.00,VWS V14.01,2013-08-30 19:55:00,
2013-08-30 16:00:00,85.1,65.0,29.81,West,275,2.0,11.0,51,0.00,,SCT300,0.00,VWS V14.01,2013-08-30 20:00:00,
2013-08-30 16:05:00,85.2,65.1,29.81,West,273,1.0,7.0,51,0.00,,SCT300,0.00,VWS V14.01,2013-08-30 20:05:00,
2013-08-30 16:10:00,84.8,64.7,29.81,West,270,1.0,7.0,51,0.00,,SCT300,0.00,VWS V14.01,2013-08-30 20:10:00,
2013-08-30 16:15:00,84.7,65.1,29.81,West,263,0.0,7.0,52,0.00,,SCT300,0.00,VWS V14.01,2013-08-30 20:15:00,
2013-08-30 16:20:00,84.9,65.3,29.81,WSW,252,1.0,7.0,52,0.00,,SCT300,0.00,VWS V14.01,2013-08-30 20:20:00,
2013-08-30 16:25:00,84.7,65.1,29.81,West,275,2.0,9.0,52,0.00,,SCT300,0.00,VWS V14.01,2013-08-30 20:25:00,
2013-08-30 16:30:00,84.5,65.5,29.81,WSW,240,1.0,9.0,53,0.00,,SCT300,0.00,VWS V14.01,2013-08-30 20:30:00,
2013-08-30 16:35:00,84.4,65.4,29.80,WSW,257,2.0,7.0,53,0.00,,SCT300,0.00,VWS V14.01,2013-08-30 20:35:00,
2013-08-30 16:40:00,84.5,65.5,29.80,WNW,283,5.0,7.0,53,0.00,,SCT300,0.00,VWS V14.01,2013-08-30 20:40:00,
2013-08-30 16:45:00,84.8,65.2,29.81,West,269,2.0,8.0,52,0.00,,SCT300,0.00,VWS V14.01,2013-08-30 20:45:00,
2013-08-30 16:50:00,84.7,65.7,29.81,WNW,294,2.0,8.0,53,0.00,,SCT300,0.00,VWS V14.01,2013-08-30 20:50:00,
2013-08-30 16:55:00,84.4,65.4,29.80,West,261,0.0,9.0,53,0.00,,SCT300,0.00,VWS V14.01,2013-08-30 20:55:00,
2013-08-30 17:00:00,84.5,65.5,29.80,West,261,0.0,9.0,53,0.00,,SCT300,0.00,VWS V14.01,2013-08-30 21:00:00,
2013-08-30 17:05:00,84.7,65.7,29.80,West,274,1.0,8.0,53,0.00,,SCT300,0.00,VWS V14.01,2013-08-30 21:05:00,
2013-08-30 17:10:00,84.9,65.9,29.80,West,276,1.0,8.0,53,0.00,,SCT300,0.00,VWS V14.01,2013-08-30 21:10:00,
2013-08-30 17:15:00,85.2,65.6,29.80,West,281,7.0,8.0,52,0.00,,SCT300,0.00,VWS V14.01,2013-08-30 21:15:00,
2013-08-30 17:20:00,85.1,65.5,29.80,West,259,4.0,8.0,52,0.00,,SCT300,0.00,VWS V14.01,2013-08-30 21:20:00,
2013-08-30 17:25:00,84.9,65.9,29.80,West,274,6.0,8.0,53,0.00,,SCT300,0.00,VWS V14.01,2013-08-30 21:25:00,
2013-08-30 17:30:00,84.8,65.8,29.80,West,277,2.0,8.0,53,0.00,,SCT300,0.00,VWS V14.01,2013-08-30 21:30:00,
2013-08-30 17:35:00,84.8,65.8,29.80,West,272,7.0,8.0,53,0.00,,SCT300,0.00,VWS V14.01,2013-08-30 21:35:00,
2013-08-30 17:40:00,84.5,65.5,29.80,West,277,1.0,8.0,53,0.00,,SCT300,0.00,VWS V14.01,2013-08-30 21:40:00,
2013-08-30 17:45:00,84.4,65.9,29.80,West,275,0.0,8.0,54,0.00,,SCT300,0.00,VWS V14.01,2013-08-30 21:45:00,
2013-08-30 17:50:00,84.3,65.9,29.80,WNW,282,4.0,8.0,54,0.00,,SCT300,0.00,VWS V14.01,2013-08-30 21:50:00,
2013-08-30 17:55:00,84.0,66.1,29.80,West,278,0.0,8.0,55,0.00,,SCT300,0.00,VWS V14.01,2013-08-30 21:55:00,
2013-08-30 18:00:00,84.0,66.1,29.80,WNW,294,1.0,11.0,55,0.00,,SCT300,0.00,VWS V14.01,2013-08-30 22:00:00,
2013-08-30 18:05:00,83.9,66.0,29.80,West,279,1.0,6.0,55,0.00,,SCT300,0.00,VWS V14.01,2013-08-30 22:05:00,
2013-08-30 18:10:00,83.8,66.4,29.80,West,279,0.0,6.0,56,0.00,,SCT300,0.00,VWS V14.01,2013-08-30 22:10:00,
2013-08-30 18:15:00,83.6,66.3,29.80,West,277,0.0,6.0,56,0.00,,SCT300,0.00,VWS V14.01,2013-08-30 22:15:00,
2013-08-30 18:20:00,83.4,66.1,29.80,West,273,2.0,6.0,56,0.00,,SCT300,0.00,VWS V14.01,2013-08-30 22:20:00,
2013-08-30 18:25:00,82.9,66.1,29.79,West,268,3.0,6.0,57,0.00,,SCT300,0.00,VWS V14.01,2013-08-30 22:25:00,
2013-08-30 18:30:00,82.5,66.2,29.79,WSW,239,0.0,6.0,58,0.00,,SCT300,0.00,VWS V14.01,2013-08-30 22:30:00,
2013-08-30 18:35:00,82.1,65.9,29.80,WSW,241,1.0,4.0,58,0.00,,SCT300,0.00,VWS V14.01,2013-08-30 22:35:00,
2013-08-30 18:40:00,81.8,66.1,29.80,SSW,201,6.0,9.0,59,0.00,,SCT300,0.00,VWS V14.01,2013-08-30 22:40:00,
2013-08-30 18:45:00,81.6,65.9,29.80,West,270,1.0,9.0,59,0.00,,SCT300,0.00,VWS V14.01,2013-08-30 22:45:00,
2013-08-30 18:50:00,81.5,66.3,29.80,West,270,0.0,9.0,60,0.00,,SCT300,0.00,VWS V14.01,2013-08-30 22:50:00,
2013-08-30 18:55:00,81.2,66.0,29.80,West,270,0.0,9.0,60,0.00,,SCT300,0.00,VWS V14.01,2013-08-30 22:55:00,
2013-08-30 19:00:00,81.0,65.8,29.80,West,270,0.0,9.0,60,0.00,,BKN300,0.00,VWS V14.01,2013-08-30 23:00:00,
2013-08-30 19:05:00,80.7,65.5,29.80,West,270,0.0,1.0,60,0.00,,BKN300,0.00,VWS V14.01,2013-08-30 23:05:00,
2013-08-30 19:10:00,80.5,65.8,29.80,West,270,0.0,2.0,61,0.00,,BKN300,0.00,VWS V14.01,2013-08-30 23:10:00,
2013-08-30 19:15:00,80.2,65.5,29.80,West,270,0.0,2.0,61,0.00,,BKN300,0.00,VWS V14.01,2013-08-30 23:15:00,
2013-08-30 19:20:00,79.9,65.7,29.80,West,270,0.0,2.0,62,0.00,,BKN300,0.00,VWS V14.01,2013-08-30 23:20:00,
2013-08-30 19:25:00,79.7,65.5,29.80,West,270,0.0,4.0,62,0.00,,BKN300,0.00,VWS V14.01,2013-08-30 23:25:00,
2013-08-30 19:30:00,79.5,65.8,29.80,West,270,0.0,4.0,63,0.00,,BKN300,0.00,VWS V14.01,2013-08-30 23:30:00,
2013-08-30 19:35:00,79.4,65.7,29.80,SSW,204,4.0,5.0,63,0.00,,BKN300,0.00,VWS V14.01,2013-08-30 23:35:00,
2013-08-30 19:40:00,79.2,66.0,29.80,SSW,205,0.0,5.0,64,0.00,,BKN300,0.00,VWS V14.01,2013-08-30 23:40:00,
2013-08-30 19:45:00,79.1,65.9,29.80,SSW,204,1.0,5.0,64,0.00,,BKN300,0.00,VWS V14.01,2013-08-30 23:45:00,
2013-08-30 19:50:00,78.9,66.2,29.80,SSW,204,0.0,5.0,65,0.00,,BKN300,0.00,VWS V14.01,2013-08-30 23:50:00,
2013-08-30 19:55:00,78.7,66.0,29.80,SSW,204,0.0,5.0,65,0.00,,BKN300,0.00,VWS V14.01,2013-08-30 23:55:00,
2013-08-30 20:00:00,78.5,66.2,29.80,SSW,204,0.0,5.0,66,0.00,,BKN300,0.00,VWS V14.01,2013-08-31 00:00:00,
2013-08-30 20:05:00,78.4,66.6,29.80,SSW,204,0.0,0.0,67,0.00,,BKN300,0.00,VWS V14.01,2013-08-31 00:05:00,
2013-08-30 20:10:00,78.2,66.4,29.80,SSW,204,0.0,4.0,67,0.00,,BKN300,0.00,VWS V14.01,2013-08-31 00:10:00,
2013-08-30 20:15:00,78.1,66.3,29.80,WSW,250,0.0,7.0,67,0.00,,BKN300,0.00,VWS V14.01,2013-08-31 00:15:00,
2013-08-30 20:20:00,78.0,66.6,29.80,WSW,249,0.0,7.0,68,0.00,,BKN300,0.00,VWS V14.01,2013-08-31 00:20:00,
2013-08-30 20:25:00,77.9,66.5,29.80,WSW,249,0.0,7.0,68,0.00,,BKN300,0.00,VWS V14.01,2013-08-31 00:25:00,
2013-08-30 20:30:00,77.7,66.3,29.80,WSW,249,0.0,7.0,68,0.00,,BKN300,0.00,VWS V14.01,2013-08-31 00:30:00,
2013-08-30 20:35:00,77.6,66.2,29.80,WSW,249,0.0,1.0,68,0.00,,BKN300,0.00,VWS V14.01,2013-08-31 00:35:00,
2013-08-30 20:40:00,77.5,66.5,29.81,WSW,248,0.0,2.0,69,0.00,,BKN300,0.00,VWS V14.01,2013-08-31 00:40:00,
2013-08-30 20:45:00,77.4,66.4,29.81,SW,234,3.0,4.0,69,0.00,,BKN300,0.00,VWS V14.01,2013-08-31 00:45:00,
2013-08-30 20:50:00,77.3,66.3,29.81,SW,234,0.0,4.0,69,0.00,,BKN300,0.00,VWS V14.01,2013-08-31 00:50:00,
2013-08-30 20:55:00,77.2,66.7,29.81,SW,234,0.0,4.0,70,0.00,,BKN300,0.00,VWS V14.01,2013-08-31 00:55:00,
2013-08-30 21:00:00,77.0,66.5,29.81,SW,234,0.0,4.0,70,0.00,,SCT300,0.00,VWS V14.01,2013-08-31 01:00:00,
2013-08-30 21:05:00,76.9,66.8,29.81,SW,231,0.0,2.0,71,0.00,,SCT300,0.00,VWS V14.01,2013-08-31 01:05:00,
2013-08-30 21:10:00,76.8,66.7,29.81,SW,231,0.0,3.0,71,0.00,,SCT300,0.00,VWS V14.01,2013-08-31 01:10:00,
2013-08-30 21:15:00,76.7,66.6,29.81,SW,231,0.0,3.0,71,0.00,,SCT300,0.00,VWS V14.01,2013-08-31 01:15:00,
2013-08-30 21:20:00,76.6,66.9,29.81,SW,231,0.0,3.0,72,0.00,,SCT300,0.00,VWS V14.01,2013-08-31 01:20:00,
2013-08-30 21:25:00,76.4,66.7,29.80,SW,231,0.0,3.0,72,0.00,,SCT300,0.00,VWS V14.01,2013-08-31 01:25:00,
2013-08-30 21:30:00,76.2,66.9,29.81,SW,231,0.0,4.0,73,0.00,,SCT300,0.00,VWS V14.01,2013-08-31 01:30:00,
2013-08-30 21:35:00,76.0,66.7,29.80,SW,231,0.0,2.0,73,0.00,,SCT300,0.00,VWS V14.01,2013-08-31 01:35:00,
2013-08-30 21:40:00,75.9,66.6,29.80,SW,231,0.0,2.0,73,0.00,,SCT300,0.00,VWS V14.01,2013-08-31 01:40:00,
2013-08-30 21:45:00,75.8,66.9,29.80,SW,231,0.0,2.0,74,0.00,,SCT300,0.00,VWS V14.01,2013-08-31 01:45:00,
2013-08-30 21:50:00,75.7,66.8,29.80,SW,231,0.0,3.0,74,0.00,,SCT300,0.00,VWS V14.01,2013-08-31 01:50:00,
2013-08-30 21:55:00,75.6,67.1,29.80,SW,227,1.0,4.0,75,0.00,,SCT300,0.00,VWS V14.01,2013-08-31 01:55:00,
2013-08-30 22:00:00,75.6,67.1,29.80,SW,227,0.0,4.0,75,0.00,,SCT250,0.00,VWS V14.01,2013-08-31 02:00:00,
2013-08-30 22:05:00,75.5,67.0,29.80,SW,227,0.0,4.0,75,0.00,,SCT250,0.00,VWS V14.01,2013-08-31 02:05:00,
2013-08-30 22:10:00,75.4,67.3,29.80,SW,227,0.0,4.0,76,0.00,,SCT250,0.00,VWS V14.01,2013-08-31 02:10:00,
2013-08-30 22:15:00,75.3,67.2,29.80,SW,227,0.0,4.0,76,0.00,,SCT250,0.00,VWS V14.01,2013-08-31 02:15:00,
2013-08-30 22:20:00,75.1,67.0,29.80,SW,227,2.0,4.0,76,0.00,,SCT250,0.00,VWS V14.01,2013-08-31 02:20:00,
2013-08-30 22:25:00,75.0,67.3,29.80,SW,232,2.0,4.0,77,0.00,,SCT250,0.00,VWS V14.01,2013-08-31 02:25:00,
2013-08-30 22:30:00,74.9,67.2,29.80,SW,231,1.0,4.0,77,0.00,,SCT250,0.00,VWS V14.01,2013-08-31 02:30:00,
2013-08-30 22:35:00,74.8,67.5,29.80,SW,232,0.0,0.0,78,0.00,,SCT250,0.00,VWS V14.01,2013-08-31 02:35:00,
2013-08-30 22:40:00,74.7,67.4,29.80,SW,232,0.0,3.0,78,0.00,,SCT250,0.00,VWS V14.01,2013-08-31 02:40:00,
2013-08-30 22:45:00,74.6,67.7,29.80,SW,220,0.0,5.0,79,0.00,,SCT250,0.00,VWS V14.01,2013-08-31 02:45:00,
2013-08-30 22:50:00,74.5,67.6,29.80,SW,220,0.0,5.0,79,0.00,,SCT250,0.00,VWS V14.01,2013-08-31 02:50:00,
2013-08-30 22:55:00,74.4,67.5,29.80,SW,220,0.0,5.0,79,0.00,,SCT250,0.00,VWS V14.01,2013-08-31 02:55:00,
2013-08-30 23:00:00,74.2,67.6,29.80,SW,220,0.0,5.0,80,0.00,,BKN250,0.00,VWS V14.01,2013-08-31 03:00:00,
2013-08-30 23:05:00,74.1,67.5,29.80,SW,220,3.0,3.0,80,0.00,,BKN250,0.00,VWS V14.01,2013-08-31 03:05:00,
2013-08-30 23:10:00,74.0,67.8,29.80,SW,220,0.0,3.0,81,0.00,,BKN250,0.00,VWS V14.01,2013-08-31 03:10:00,
2013-08-30 23:15:00,73.9,67.7,29.80,SW,220,0.0,3.0,81,0.00,,BKN250,0.00,VWS V14.01,2013-08-31 03:15:00,
2013-08-30 23:20:00,73.8,67.6,29.80,SW,220,0.0,4.0,81,0.00,,BKN250,0.00,VWS V14.01,2013-08-31 03:20:00,
2013-08-30 23:25:00,73.7,67.5,29.80,SW,220,0.0,4.0,81,0.00,,BKN250,0.00,VWS V14.01,2013-08-31 03:25:00,
2013-08-30 23:30:00,73.6,67.8,29.80,SW,220,0.0,4.0,82,0.00,,BKN250,0.00,VWS V14.01,2013-08-31 03:30:00,
2013-08-30 23:35:00,73.5,67.7,29.80,SW,220,1.0,1.0,82,0.00,,BKN250,0.00,VWS V14.01,2013-08-31 03:35:00,
2013-08-30 23:40:00,73.4,67.6,29.80,SW,220,0.0,3.0,82,0.00,,BKN250,0.00,VWS V14.01,2013-08-31 03:40:00,
2013-08-30 23:45:00,73.4,67.6,29.80,SW,220,0.0,3.0,82,0.00,,BKN250,0.00,VWS V14.01,2013-08-31 03:45:00,
2013-08-30 23:50:00,73.4,67.6,29.80,SW,220,0.0,3.0,82,0.00,,BKN250,0.00,VWS V14.01,2013-08-31 03:50:00,
2013-08-30 23:55:00,73.5,67.7,29.80,SW,220,0.0,3.0,82,0.00,,BKN250,0.00,VWS V14.01,2013-08-31 03:55:00,